Weather in Novochuguyevka

Russia / Primorsky Krai     44°12′55″N   133°50′13″E
temp.,
°C
wind,
m/s
gust,
m/s
humid.,
%
clouds,
%
prec.,
mm/h
press.,
hPa
HPBL,
m
19 may, wed
wed1901:00+10sse22680 0.0 100835
04:00+9sse22610 0.0 100836
07:00+10sse23580 0.0 100881
10:00+21s35310 0.0 1006682
13:00+26w34250 0.0 10041898
16:00+27w44250 0.0 10042681
19:00+22w37425 0.0 1005359
22:00+15s1268100 0.0 100828
20 may, thu
thu2001:00+12sse2280100 0.1 100925
04:00+11sse22775 0.1 100931
07:00+14sse23680 0.0 101074
10:00+24ssw25380 0.0 1008700
13:00+30wsw58220 0.0 10062419
16:00+30wsw67185 0.0 10063045
19:00+25sw3737100 0.0 1006265
22:00+17ssw2260100 0.0 100919
21 may, fri
fri2101:00+14sse2370100 0.0 100951
04:00+13sse2268100 0.0 100817
07:00+14se1161100 0.0 100838
10:00+22s1236100 0.0 1007386
13:00+28nnw2322100 0.0 10041597
16:00+28nnw2522100 0.0 10012093
19:00+22sse1148100 0.0 100225
22:00+17s1162100 0.0 100415
22 may, sat
sat2201:00+15sse0066100 0.0 100410
04:00+14ene0069100 0.0 100210
07:00+15n0171100 0.0 100349
10:00+20wsw0148100 0.0 1003488
13:00+22nnw2340100 0.0 10031161
16:00+24e1342100 0.0 10031085
19:00+21sse126199 0.1 100480
22:00+15se256942 0.1 1008112
23 may, sun
sun2301:00+12se227460 0.0 101047
04:00+10se22822 0.0 101144
07:00+12se24724 0.0 1011121
10:00+21s35422 0.0 1010912
13:00+26ssw4532100 0.0 10081899
16:00+26sw5633100 0.0 10071847
19:00+22wsw375099 0.0 1007783
22:00+15s237299 0.0 100967